OpenBCM V1.08-5-g2f4a (Linux)

Packet Radio Mailbox

IZ3LSV

[San Dona' di P. JN]

 Login: GUEST





  
LU1HVK > KEP      10.01.20 18:06l 242 Lines 12024 Bytes #999 (0) @ WW
BID : 38798_LU1HVK
Read: GUEST
Subj: TLE 10 01
Path: IZ3LSV<IW0QNL<JH4XSY<N3HYM<XE1FH<LU3DVN<LU1HVK
Sent: 200110/1602Z 38798@LU1HVK.2594.CBA.ARG.SA LinBPQ6.0.19

                         _    _   _ _ _   ___     ___  __
                        | |  | | | / | | | \ \   / / |/ /
                        | |  | | | | | |_| |\ \ / /| ' /
                        | |__| |_| | |  _  | \ V / | . \
                        |_____\___/|_|_| |_|  \_/  |_|\_\

     BBS/NODO - CORDOBA (LEONES-FF87UH) - LU1HVK-4 NODO - LU1HVK-3 APRS

+----------------------------------------------------------------------------+
OSCAR 7
1  7530U 74089B   20009.80818385 -.00000054  00000-0 -52966-4 0  9998
2  7530 101.7769 340.5936 0012092 312.7875 162.8841 12.53641512 66221
OSCAR 11 (UoSAT 2)
1 14781U 84021B   20009.12635844  .00000068  00000-0  14440-4 0  9991
2 14781  97.5977  29.0119 0008817  18.2235 341.9294 14.83133655929061
OSCAR 19 (LUSAT)
1 20442U 90005G   20010.09943194 -.00000012  00000-0  12154-4 0  9999
2 20442  98.6737 316.9808 0010643 264.1169  95.8802 14.32942392565795
EYESAT A
1 22825U 93061C   20009.50126782 -.00000000 +00000-0 +17874-4 0  9992
2 22825 098.9179 007.9687 0009315 119.3392 240.8720 14.30075373370957
ITAMSAT
1 22826U 93061D   20009.80491303 -.00000001 +00000-0 +17411-4 0  9998
2 22826 098.9119 008.2456 0009923 108.2663 251.9599 14.30409986371222
RADIO ROSTO
1 23439U 94085A   20009.83433936 -.00000072 +00000-0 -84871-3 0  9999
2 23439 064.8152 144.3802 0146065 073.0296 288.6578 11.27569326031022
JAS 2
1 24278U 96046B   20009.59785755 -.00000044  00000-0 -11383-4 0  9990
2 24278  98.5650 140.5225 0351288  68.9739 294.8597 13.53095180155512
TECHSAT 1B
1 25397U 98043D   20009.55794513 -.00000024  00000-0  87674-5 0  9994
2 25397  98.7121 312.4205 0001881 128.6356 231.4991 14.23677308117023
ISS (ZARYA)
1 25544U 98067A   20010.28629943  .00000460  00000-0  16279-4 0  9995
2 25544  51.6454  54.7213 0005185 117.2694 334.7270 15.49550218207384
PCSAT
1 26931U 01043C   20009.90752122 -.00000043 +00000-0 +15477-4 0  9994
2 26931 067.0494 194.1169 0006751 263.1711 096.8622 14.30564080954253
SAUDISAT 1C
1 27607U 02058C   20009.96891194 -.00000016  00000-0  18467-4 0  9993
2 27607  64.5547 141.9800 0067087 215.7015 143.9593 14.75601161917325
CUTE-1
1 27844U 03031E   20009.02986080  .00000046  00000-0  40469-4 0  9993
2 27844  98.6833  19.1770 0010285 154.6189 205.5496 14.22214917857339
CUBESAT XI 4
1 27848U 03031J   20009.85455854 +.00000028 +00000-0 +32731-4 0  9991
2 27848 098.6905 020.5275 0010012 163.6994 196.4507 14.21805139857265
MOZHAYETS 4
1 27939U 03042A   20010.10599088  .00000031  00000-0  14103-4 0  9999
2 27939  98.0659 147.2860 0013973 134.2530 225.9805 14.66829331870658
CUBESAT XI 5
1 28895U 05043F   20009.86526244  .00000102  00000-0  28341-4 0  9997
2 28895  97.9852 150.9351 0017920  66.4998 293.8086 14.63728031757492
CUTE-1.7+APD II
1 32785U 08021C   20010.20762201  .00000177  00000-0  24725-4 0  9998
2 32785  97.5607   5.3538 0011825 305.4980  54.5134 14.88401092634250
DELFI C3
1 32789U 08021G   20009.57119689 +.00000776 +00000-0 +55215-4 0  9999
2 32789 097.4402 057.8061 0013245 139.2226 220.9996 15.07375902637725
SEEDS
1 32791U 08021J   20009.47536024 +.00000398 +00000-0 +45598-4 0  9990
2 32791 097.5332 010.7776 0011832 276.7172 083.2701 14.90948641634547
YUBELEINY
1 32953U 08025A   20010.03934788  .00000037  00000-0  19437-3 0  9999
2 32953  82.5036  17.0536 0020138  44.1088 316.1594 12.43093529527820
PRISM (HITOMI)
1 33493U 09002B   20009.56518023  .00001017  00000-0  94088-4 0  9996
2 33493  98.1330 303.3778 0013845 220.5348 139.4843 14.96869947595794
KKS-1 (KISEKI)
1 33499U 09002H   20010.15664119  .00000073  00000-0  18772-4 0  9994
2 33499  98.3320 220.2539 0007893 273.3634  86.6671 14.75494676589529
SWISSCUBE
1 35932U 09051B   20009.89239834  .00000104  00000-0  34629-4 0  9997
2 35932  98.6002 187.1064 0006607 253.9599 106.0871 14.56347210546648
BEESAT
1 35933U 09051C   20010.15814654  .00000081  00000-0  29222-4 0  9995
2 35933  98.6014 189.2145 0004736 268.1843  91.8811 14.56428682546790
ITUPSAT 1
1 35935U 09051E   20009.23496211  .00000075  00000-0  28317-4 0  9996
2 35935  98.6123 188.4823 0007045 269.6306  90.4083 14.55580421546394
XIWANG-1 (HOPE-1)
1 36122U 09072B   20009.94812416 -.00000027 +00000-0 +40492-4 0  9991
2 36122 100.0819 007.7416 0006974 229.0467 131.0059 13.16352879483881
TISAT 1
1 36799U 10035E   20010.15016538  .00000291  00000-0  35398-4 0  9999
2 36799  98.1762 174.4645 0013293 129.1558 231.0843 14.91244566515384
JUGNU
1 37839U 11058B   20009.80424645  .00000294  00000-0  15213-4 0  9990
2 37839  19.9594 170.9333 0018996  68.1394  68.4223 14.12668552426297
SRMSAT
1 37841U 11058D   20010.00911942  .00000306  00000-0  23226-4 0  9995
2 37841  19.9704 230.7212 0011786 292.1041 217.5341 14.10647568425718
M-CUBED/EXP-1 PRIME
1 37855U 11061F   20010.07214408  .00000657  00000-0  40601-4 0  9999
2 37855 101.7267  16.2834 0172129 187.8157 172.0367 15.05927689447684
HORYU 2
1 38340U 12025D   20010.08512776  .00000147  00000-0  29394-4 0  9990
2 38340  98.3044  59.5594 0011504 183.4064 176.7068 14.75796676411450
STRAND 1
1 39090U 13009E   20009.48908845 +.00000041 +00000-0 +29652-4 0  9994
2 39090 098.4676 216.8134 0009968 045.2389 314.9606 14.35113346359749
SOMP
1 39134U 13015E   20009.58736829 +.00001451 +00000-0 +74064-4 0  9995
2 39134 064.8633 076.3890 0037945 270.3335 089.3445 15.20642122371364
BEESAT 3
1 39135U 13015F   20010.14236946  .00001041  00000-0  59945-4 0  9991
2 39135  64.8666  95.8104 0044732 271.6224  87.9779 15.17844535371427
BEESAT 2
1 39136U 13015G   20009.53283385 +.00000865 +00000-0 +52810-4 0  9999
2 39136 064.8717 102.2239 0031017 279.9154 079.8471 15.17265315371244
CUBEBUG 1
1 39153U 13018D   20010.20973028  .00000178  00000-0  30150-4 0  9997
2 39153  97.9812 112.2358 0015700 250.6941 109.2573 14.80650182362228
ZACUBE
1 39417U 13066B   20009.53607112 +.00000211 +00000-0 +32671-4 0  9993
2 39417 097.5610 016.5047 0060379 082.5581 278.2488 14.81203948331366
TRITON 1
1 39427U 13066M   20009.50027916  .00000109  00000-0  25575-4 0  9990
2 39427  97.7036 339.5316 0112553 229.4296 129.7071 14.67927875328387
GOMX 1
1 39430U 13066Q   20010.18824853  .00000195  00000-0  44560-4 0  9995
2 39430  97.7724 318.4960 0150596 326.9053  32.2791 14.59336808326576
HUMSAT D
1 39433U 13066T   20010.06724500  .00000526  00000-0  56420-4 0  9999
2 39433  97.5286  53.8916 0029986 337.7754  22.2164 14.92346979333700
CUBEBUG 2
1 39440U 13066AA  20009.76929039 +.00000164 +00000-0 +29647-4 0  9995
2 39440 097.6159 001.2479 0081109 138.0204 222.7262 14.75940750329020
FUNCUBE 1
1 39444U 13066AE  20010.09757016  .00000247  00000-0  36461-4 0  9995
2 39444  97.5572  19.1614 0059444  73.8950 286.8798 14.82041691330359
UWE-3
1 39446U 13066AG  20009.21920612  .00000190  00000-0  31665-4 0  9991
2 39446  97.5881   7.9097 0071340 112.1907 248.6894 14.78475422329485
SPROUT
1 39770U 14029E   20010.14345031  .00000684  00000-0  81412-4 0  9994
2 39770  97.8901 117.2276 0009759 127.0546 233.1555 14.87570112305371
UNISAT 6
1 40012U 14033C   20009.75114219 +.00000160 +00000-0 +31088-4 0  9990
2 40012 097.7292 232.2060 0058813 154.8355 205.5740 14.74053887298892
DUCHIFAT 1
1 40021U 14033M   20009.54068024  .00000452  00000-0  51770-4 0  9993
2 40021  97.9346 299.8982 0014297  93.8076 266.4777 14.90781935302067
QB50P1
1 40025U 14033R   20009.52821757  .00000246  00000-0  32120-4 0  9994
2 40025  97.9117 293.9065 0013769 103.7274 256.5476 14.89050509301809
CHUBUSAT 1
1 40300U 14070C   20010.14335229  .00000647  00000-0  30887-4 0  9998
2 40300  97.3079  83.9208 0021165  55.3864 335.2133 15.22318160287275
NUDT-PHONESAT
1 40900U 15049B   20010.14057203  .00002057  00000-0  89060-4 0  9998
2 40900  97.4340  22.5140 0012617 176.1565 248.2906 15.23487725238934
ZDPS 2A
1 40901U 15049C   20010.15824397  .00000705  00000-0  37940-4 0  9994
2 40901  97.4614  18.0595 0012583 201.9854 222.8355 15.18016868238401
ZDPS 2B
1 40902U 15049D   20010.13606579  .00001165  00000-0  60654-4 0  9992
2 40902  97.4575  15.3782 0012658 199.2929 223.7896 15.17938281238378
XW-2A
1 40903U 15049E   20010.20701764  .00001826  00000-0  43991-4 0  9992
2 40903  97.3123  58.8860 0014894 117.6887 313.5628 15.42506318241923
KAITUO 1A
1 40904U 15049F   20010.22273339  .00000478  00000-0  28647-4 0  9990
2 40904  97.4723  13.7957 0013568 210.6536 282.1036 15.15562629238129
OBJECT G
1 40905U 15049G   20010.24040602  .00000443  00000-0  27638-4 0  9999
2 40905  97.4784  11.1583 0014838 206.1907 216.0099 15.14435395237983
XW-2C
1 40906U 15049H   20010.23289558  .00000415  00000-0  25139-4 0  9997
2 40906  97.4726  13.9899 0014043 200.9834 217.4276 15.15887833238138
XW-2D
1 40907U 15049J   20010.24119383  .00000814  00000-0  45667-4 0  9998
2 40907  97.4711  13.6864 0013446 197.5516 173.4030 15.16099730238159
LILACSAT 2
1 40908U 15049K   20010.15443332  .00000065  00000-0  72016-5 0  9990
2 40908  97.4854  12.1737 0015002 207.5271 216.4000 15.13928831237896
XW-2F
1 40910U 15049M   20010.14454192  .00000940  00000-0  50001-4 0  9999
2 40910  97.4653  15.9153 0014225 189.1090 236.1557 15.17640131238175
XW-2B
1 40911U 15049N   20010.09685497  .00000444  00000-0  26539-4 0  9996
2 40911  97.4731  14.2267 0013344 199.2271 233.9184 15.16024920238021
KAITUO 1B
1 40912U 15049P   20010.18958719  .00001160  00000-0  56941-4 0  9993
2 40912  97.4494  19.9193 0014924 168.9687 254.1608 15.19995661238520
TIANWANG 1C (TW-1C)
1 40926U 15051B   20010.20661311  .00014291  00000-0  17584-3 0  9991
2 40926  97.1095  61.3799 0005867 339.3609  92.0006 15.60329653242159
TIANWANG 1B (TW-1B)
1 40927U 15051C   20010.19969649  .00013060  00000-0  17295-3 0  9997
2 40927  97.1119  60.2969 0006651 353.4955  77.4256 15.58395956241976
